Date String (YYYY-MM-DD hh:mm:ss) UTC,Instrument flags,Ambient pressure (hPa),Sample flow (lpm),Bypass flow (lpm),Sample temperature (°C),Ambient temperature (°C),ASC tube jacket temperature (°C),LED temperature (°C),Box temperature (°C),Sample RH (%),Span deviation,Mass concentration (μg/m³),Mass concentration (μg/m³),Mass concentration (μg/m³)
DateTimeUTC,F1_M11,P_M11,Q1_M11,Q2_M11,T1_M11,T2_M11,T3_M11,T4_M11,T5_M11,U1_M11,ZSPAN_M11,X0_M11,X2_M11,X1_M11
2022-05-09 06:00:00,,0808.0,5.00,0.00,28.9,28.2,00.0,37.9,30.7,20.8,0000.0,0017.15,0006.67,0003.42
2022-05-09 06:01:00,,0808.0,5.00,0.00,28.9,28.2,00.0,37.9,30.7,20.7,0000.0,0017.64,0006.72,0003.42
2022-05-09 06:02:00,,0807.9,5.01,0.00,28.9,28.2,00.0,37.9,30.7,20.8,0000.0,0017.67,0006.69,0003.43
2022-05-09 06:03:00,,0808.0,4.99,0.00,28.9,28.2,00.0,37.9,30.7,20.7,0000.0,0017.42,0006.62,0003.43
2022-05-09 06:04:00,,0808.0,5.00,0.00,28.9,28.2,00.0,37.9,30.7,20.7,0000.0,0017.22,0006.58,0003.43
2022-05-09 06:05:00,,0808.0,5.00,0.00,28.9,28.2,00.0,37.9,30.8,20.7,0000.0,0016.83,0006.55,0003.43
2022-05-09 06:06:00,,0808.1,5.01,0.00,28.9,28.2,00.0,37.9,30.7,20.7,0000.0,0016.84,0006.62,0003.43
2022-05-09 06:07:00,,0808.0,5.00,0.00,28.9,28.2,00.0,37.9,30.8,20.7,0000.0,0017.05,0006.66,0003.42
2022-05-09 06:08:00,,0808.0,5.00,0.00,28.9,28.2,00.0,37.9,30.8,20.7,0000.0,0017.54,0006.70,0003.43
2022-05-09 06:09:00,,0808.0,5.00,0.00,28.9,28.2,00.0,37.9,30.8,20.7,0000.0,0017.52,0006.63,0003.43
2022-05-09 06:10:00,,0808.2,5.00,0.00,28.9,28.2,00.0,37.9,30.7,20.7,0000.0,0018.60,0006.66,0003.45
2022-05-09 06:11:00,,0808.2,5.00,0.00,28.9,28.2,00.0,37.9,30.8,20.7,0000.0,0017.85,0006.58,0003.46
2022-05-09 06:12:00,,0808.3,4.99,0.00,28.9,28.2,00.0,37.9,30.8,20.7,0000.0,0017.08,0006.49,0003.46
2022-05-09 06:13:00,,0808.5,4.99,0.00,29.0,28.2,00.0,37.9,30.8,20.7,0000.0,0016.81,0006.49,0003.47
2022-05-09 06:14:00,,0808.5,5.00,0.00,29.0,28.2,00.0,37.9,30.8,20.7,0000.0,0016.75,0006.46,0003.46
2022-05-09 06:15:00,,0808.4,5.01,0.00,29.0,28.2,00.0,37.9,30.8,20.7,0000.0,0016.76,0006.38,0003.46
2022-05-09 06:16:00,,0808.3,5.02,0.00,29.0,28.3,00.0,37.9,30.8,20.7,0000.0,0017.14,0006.31,0003.45
2022-05-09 06:17:00,,0808.3,5.00,0.00,29.0,28.3,00.0,37.9,30.8,20.6,0000.0,0016.71,0006.25,0003.45
2022-05-09 06:18:00,,0808.2,5.01,0.00,29.0,28.2,00.0,37.9,30.8,20.6,0000.0,0017.13,0006.26,0003.47
2022-05-09 06:19:00,,0808.2,5.00,0.00,29.0,28.2,00.0,37.9,30.8,20.6,0000.0,0017.48,0006.24,0003.47
2022-05-09 06:20:00,,0808.2,4.99,0.00,29.0,28.2,00.0,37.9,30.8,20.6,0000.0,0017.82,0006.26,0003.47
2022-05-09 06:21:00,,0808.3,5.00,0.00,28.9,28.2,00.0,37.9,30.8,20.6,0000.0,0016.80,0006.28,0003.47
2022-05-09 06:22:00,,0808.2,5.00,0.00,28.9,28.2,00.0,37.9,30.7,20.6,0000.0,0016.52,0006.30,0003.47
2022-05-09 06:23:00,,0808.2,5.00,0.00,28.9,28.2,00.0,37.9,30.8,20.6,0000.0,0016.75,0006.41,0003.47
2022-05-09 06:24:00,,0808.2,5.00,0.00,29.0,28.2,00.0,37.9,30.8,20.6,0000.0,0016.91,0006.47,0003.46
2022-05-09 06:25:00,,0808.3,4.99,0.00,29.0,28.2,00.0,37.9,30.8,20.6,0000.0,0017.01,0006.51,0003.45
2022-05-09 06:26:00,,0808.3,5.00,0.00,29.0,28.2,00.0,37.9,30.8,20.6,0000.0,0016.87,0006.56,0003.45
2022-05-09 06:27:00,,0808.3,5.00,0.00,29.0,28.2,00.0,37.9,30.8,20.6,0000.0,0016.45,0006.59,0003.45
2022-05-09 06:28:00,,0808.3,5.01,0.00,29.0,28.2,00.0,37.9,30.8,20.6,0000.0,0016.82,0006.56,0003.44
2022-05-09 06:29:00,,0808.3,4.99,0.00,29.0,28.2,00.0,37.9,30.8,20.6,0000.0,0016.73,0006.49,0003.44
2022-05-09 06:30:00,,0808.2,5.01,0.00,29.0,28.2,00.0,37.9,30.8,20.6,0000.0,0015.98,0006.49,0003.43
2022-05-09 06:31:00,,0808.2,5.00,0.00,29.0,28.2,00.0,37.9,30.8,20.6,0000.0,0015.41,0006.45,0003.43
2022-05-09 06:32:00,,0808.2,4.99,0.00,29.0,28.2,00.0,37.9,30.8,20.6,0000.0,0015.00,0006.32,0003.43
2022-05-09 06:33:00,,0808.3,5.00,0.00,29.0,28.2,00.0,37.9,30.8,20.6,0000.0,0015.17,0006.34,0003.41
2022-05-09 06:34:00,,0808.4,5.01,0.00,29.0,28.2,00.0,37.9,30.8,20.6,0000.0,0015.21,0006.30,0003.42
2022-05-09 06:35:00,,0808.4,5.00,0.00,29.0,28.2,00.0,37.9,30.8,20.6,0000.0,0014.96,0006.20,0003.41
2022-05-09 06:36:00,,0808.3,5.01,0.00,29.0,28.3,00.0,37.9,30.8,20.6,0000.0,0015.48,0006.16,0003.42
2022-05-09 06:37:00,,0808.2,4.99,0.00,29.0,28.3,00.0,37.9,30.8,20.5,0000.0,0015.50,0006.15,0003.43
2022-05-09 06:38:00,,0808.2,5.00,0.00,29.0,28.3,00.0,37.9,30.8,20.5,0000.0,0015.32,0006.12,0003.44
2022-05-09 06:39:00,,0808.3,5.01,0.00,29.0,28.3,00.0,37.9,30.8,20.5,0000.0,0014.95,0006.09,0003.45
2022-05-09 06:40:00,,0808.4,5.00,0.00,29.0,28.3,00.0,37.9,30.8,20.5,0000.0,0014.36,0006.10,0003.45
2022-05-09 06:41:00,,0808.4,5.00,0.00,29.0,28.3,00.0,38.0,30.9,20.4,0000.0,0014.45,0006.04,0003.45
2022-05-09 06:42:00,,0808.5,5.00,0.00,29.0,28.3,00.0,38.0,30.9,20.5,0000.0,0014.74,0006.03,0003.44
2022-05-09 06:43:00,,0808.5,5.00,0.00,29.0,28.3,00.0,38.0,30.9,20.5,0000.0,0014.86,0006.04,0003.43
2022-05-09 06:44:00,,0808.5,4.99,0.00,29.1,28.3,00.0,38.0,30.9,20.5,0000.0,0014.66,0006.01,0003.44
2022-05-09 06:45:00,,0808.5,5.01,0.00,29.1,28.3,00.0,38.0,30.9,20.4,0000.0,0014.50,0005.99,0003.44
2022-05-09 06:46:00,,0808.5,4.99,0.00,29.1,28.3,00.0,38.0,30.9,20.4,0000.0,0014.52,0006.02,0003.44
2022-05-09 06:47:00,,0808.4,5.00,0.00,29.1,28.3,00.0,38.0,30.9,20.4,0000.0,0014.09,0006.07,0003.45
2022-05-09 06:48:00,,0808.5,5.01,0.00,29.1,28.3,00.0,38.0,30.9,20.4,0000.0,0014.31,0006.18,0003.45
2022-05-09 06:49:00,,0808.4,5.00,0.00,29.1,28.3,00.0,38.0,30.9,20.4,0000.0,0014.50,0006.21,0003.44
2022-05-09 06:50:00,,0808.4,5.00,0.00,29.1,28.3,00.0,38.0,30.9,20.4,0000.0,0014.67,0006.27,0003.44
2022-05-09 06:51:00,,0808.4,5.00,0.00,29.1,28.3,00.0,38.0,30.9,20.4,0000.0,0014.64,0006.29,0003.42
2022-05-09 06:52:00,,0808.5,5.00,0.00,29.1,28.3,00.0,38.0,30.9,20.3,0000.0,0014.53,0006.34,0003.41
2022-05-09 06:53:00,,0808.5,5.00,0.00,29.1,28.3,00.0,38.0,30.9,20.4,0000.0,0014.13,0006.28,0003.43
2022-05-09 06:54:00,,0808.4,5.00,0.00,29.1,28.3,00.0,38.0,30.9,20.4,0000.0,0014.49,0006.30,0003.44
2022-05-09 06:55:00,,0808.5,5.00,0.00,29.1,28.3,00.0,38.0,30.9,20.4,0000.0,0014.55,0006.26,0003.43
2022-05-09 06:56:00,,0808.4,5.01,0.00,29.1,28.3,00.0,38.0,30.9,20.4,0000.0,0014.66,0006.25,0003.43
2022-05-09 06:57:00,,0808.4,4.99,0.00,29.1,28.3,00.0,38.0,30.8,20.4,0000.0,0014.50,0006.17,0003.43
2022-05-09 06:58:00,,0808.5,5.00,0.00,29.0,28.2,00.0,38.0,30.8,20.4,0000.0,0014.62,0006.21,0003.43
2022-05-09 06:59:00,,0808.5,4.99,0.00,29.0,28.2,00.0,38.0,30.8,20.4,0000.0,0014.38,0006.11,0003.43
